Weather History for Goodland, KS

Change the Weather History Date:

Tuesday, July 22, 2014

  Actual Average Record
Temperature  
Mean Temperature 81 °F 76 °F  
Max Temperature 96 °F 90 °F 105 °F (1934)
Min Temperature 66 °F 62 °F 52 °F (1958)
Degree Days  
Heating Degree Days 0 0  
Month to date heating degree days 13 0  
Since 1 June heating degree days 51 37  
Since 1 July heating degree days 13 0  
Cooling Degree Days 16 11  
Month to date cooling degree days 208 235  
Year to date cooling degree days 403 455  
Since 1 June cooling degree days 357 414  
Growing Degree Days 31 (Base 50)    
Moisture  
Dew Point 61 °F    
Average Humidity 56    
Maximum Humidity 84    
Minimum Humidity 28    
Precipitation  
Precipitation 0.00 in 0.11 in 1.47 in (2004)
Month to date precipitation 1.73 2.46  
Year to date precipitation 10.80 12.19  
Snow  
Snow 0.00 in 0.00 in - ()
Month to date snowfall 0.0 0.0  
Since 1 June snowfall 0.0 0.0  
Since 1 July snowfall 0.0 0.0  
Snow Depth 0.00 in    
Sea Level Pressure  
Sea Level Pressure 30.02 in    
Wind  
Wind Speed 10 mph (ESE)    
Max Wind Speed 21 mph    
Max Gust Speed 25 mph    
Visibility 10 miles    
Events      
T = Trace of Precipitation, MM = Missing Value Source: NWS Daily Summary

Daily Weather History Graph

Daily Weather History Graph

Search for Another Location

Airport:

Trip Planner

Search our weather history database for the weather conditions in past years. The results will help you decide how hot, cold, wet, or windy it might be!

Date:

Astronomy

Jul. 22, 2014 Rise Set
Actual Time 5:37 AM MDT 8:08 PM MDT
Civil Twilight 5:07 AM MDT 8:38 PM MDT
Nautical Twilight 4:28 AM MDT 9:16 PM MDT
Astronomical Twilight 3:46 AM MDT 9:59 PM MDT
Moon 2:12 AM MDT (7/22) 4:47 PM MDT (7/22)
Length of Visible Light 15h 31m
Length of Day
14h 30m
Waning Crescent, 16% of the Moon is Illuminated
Jul 22
Waning Crescent
Jul 26
New
Aug 3
First Quarter
Aug 10
Full
Aug 17
Last Quarter

Hourly Weather History & Observations

Time (MDT) Temp. Heat Index Dew Point Humidity Pressure Visibility Wind Dir Wind Speed Gust Speed Precip Events Conditions
12:53 AM 72.0 °F - 62.1 °F 71% 29.93 in 10.0 mi SW 16.1 mph 24.2 mph N/A   Clear
1:53 AM 71.1 °F - 61.0 °F 70% 29.92 in 10.0 mi SW 13.8 mph - N/A   Clear
2:53 AM 71.1 °F - 59.0 °F 66% 29.91 in 10.0 mi SW 12.7 mph - N/A   Clear
3:53 AM 66.0 °F - 60.1 °F 81% 29.96 in 10.0 mi Variable 6.9 mph 19.6 mph N/A   Clear
4:53 AM 68.0 °F - 59.0 °F 73% 29.95 in 10.0 mi WSW 10.4 mph - N/A   Clear
5:53 AM 66.9 °F - 60.1 °F 79% 29.94 in 10.0 mi SW 3.5 mph - N/A   Clear
6:53 AM 72.0 °F - 60.1 °F 66% 30.03 in 10.0 mi North - - N/A   Clear
7:53 AM 78.8 °F - 59.0 °F 51% 30.15 in 10.0 mi East 6.9 mph - N/A   Clear
8:53 AM 84.0 °F 83.8 °F 59.0 °F 43% 30.02 in 10.0 mi East 17.3 mph - N/A   Clear
9:53 AM 84.9 °F 84.8 °F 60.1 °F 43% 30.03 in 10.0 mi NE 13.8 mph - N/A   Clear
10:53 AM 87.1 °F 87.0 °F 61.0 °F 41% 30.04 in 10.0 mi ENE 11.5 mph - N/A   Clear
11:53 AM 90.0 °F 89.1 °F 59.0 °F 35% 30.04 in 10.0 mi East 9.2 mph - N/A   Clear
12:53 PM 93.0 °F 92.3 °F 59.0 °F 32% 30.02 in 10.0 mi East 6.9 mph - N/A   Clear
1:53 PM 93.9 °F 93.2 °F 59.0 °F 31% 30.02 in 10.0 mi North - - N/A   Clear
2:53 PM 95.0 °F 94.8 °F 60.1 °F 31% 30.02 in 10.0 mi SSE 8.1 mph - N/A   Clear
3:53 PM 95.0 °F 95.2 °F 61.0 °F 32% 30.02 in 10.0 mi SE 3.5 mph - N/A   Clear
4:53 PM 95.0 °F 94.4 °F 59.0 °F 30% 30.02 in 10.0 mi SSE 8.1 mph - N/A   Clear
5:53 PM 95.0 °F 93.7 °F 57.0 °F 28% 30.02 in 10.0 mi SE 9.2 mph - N/A   Clear
6:53 PM 91.9 °F 90.8 °F 57.9 °F 32% 30.02 in 10.0 mi SE 6.9 mph - N/A   Clear
7:53 PM 86.0 °F 86.1 °F 61.0 °F 43% 30.04 in 10.0 mi SE 8.1 mph - N/A   Clear
8:53 PM 80.1 °F 82.3 °F 66.9 °F 64% 30.06 in 10.0 mi East 12.7 mph - N/A   Clear
9:53 PM 77.0 °F - 68.0 °F 74% 30.09 in 10.0 mi East 10.4 mph - N/A   Clear
10:53 PM 73.9 °F - 68.0 °F 82% 30.10 in 10.0 mi East 9.2 mph - N/A   Clear
11:53 PM 73.0 °F - 68.0 °F 84% 30.12 in 10.0 mi East 9.2 mph - N/A   Clear